Wind_Speed
20 20 20 20 20 20 20 20 20 20 20 20 20 21 21 21 21 22 23 23 23 23 23 24 24 24 24 23 23 23 23 23 23 23 23 24 24 23
21 21 21 21 21 21 21 22 22 22 21 21 22 21 22 22 22 23 23 23 23 23 24 24 25 24 24 24 24 24 24 24 23 23 23 23 23 24
22 22 22 22 22 22 22 23 23 23 22 22 23 24 23 24 24 24 24 24 24 24 24 25 25 25 25 25 25 26 25 25 25 24 24 24 24 24
23 23 23 24 24 24 24 24 24 24 24 24 24 24 25 25 25 25 25 25 25 24 24 25 25 25 25 26 26 27 27 26 26 26 26 25 25 25
25 24 24 25 25 26 26 26 25 25 25 25 25 25 25 26 26 26 26 25 25 25 25 25 25 25 25 26 26 26 26 26 26 26 25 25 25 26
26 26 26 26 26 26 27 27 27 27 27 26 26 26 26 26 26 26 26 26 26 26 26 25 26 26 25 25 25 25 25 26 26 26 26 26 26 26
26 26 27 27 27 27 27 27 27 28 28 28 27 27 26 26 26 26 26 26 26 25 25 25 26 25 25 25 25 25 25 25 26 25 25 26 26 26
26 26 26 27 27 27 27 27 27 28 28 27 27 27 27 27 27 27 26 26 25 25 25 25 25 25 25 25 25 26 26 26 26 26 26 26 26 26
27 27 27 27 27 27 27 26 26 26 27 27 27 27 27 27 27 27 27 26 26 25 25 25 25 25 25 25 25 25 25 25 25 26 26 26 26 26
27 27 27 26 27 27 26 26 26 26 27 27 27 27 27 27 28 28 27 27 26 26 26 26 26 26 26 25 25 25 24 24 24 24 24 25 25 26
27 27 27 27 27 27 27 26 26 26 27 27 27 27 27 28 28 27 27 27 26 26 27 27 26 26 25 25 25 24 24 24 24 24 25 25 26 26
28 28 28 27 27 27 27 27 27 26 27 27 28 28 28 28 28 27 27 26 25 25 26 26 26 26 25 25 25 24 24 25 25 25 25 25 26 26
28 28 28 28 27 27 27 27 27 27 27 27 28 28 28 27 27 28 27 26 26 25 26 25 25 25 26 26 26 25 25 26 26 26 27 27 27 27
28 28 28 28 27 28 28 27 27 27 28 28 28 28 28 27 27 27 27 26 26 26 26 26 26 26 26 26 26 26 26 27 27 27 27 27 27 28
28 28 27 28 28 27 27 27 27 28 28 28 28 27 27 27 27 27 27 27 27 26 26 26 26 27 26 26 26 26 27 27 28 27 27 27 28 28
29 28 28 28 27 27 27 27 27 27 27 27 27 26 26 26 26 26 26 27 27 27 27 27 26 26 26 26 26 26 27 27 27 27 27 27 28 28
29 28 28 29 28 28 28 27 27 26 26 26 26 27 27 26 25 25 25 26 26 26 25 25 26 26 26 26 26 26 26 26 26 26 26 27 27 27
29 28 29 28 28 28 28 27 27 27 27 27 26 26 27 26 25 25 25 25 25 25 25 25 25 25 25 25 25 25 25 25 25 26 26 26 26 26
30 29 29 28 28 28 29 29 28 27 27 27 26 26 26 26 26 26 25 25 24 24 25 26 25 25 25 25 24 25 25 25 24 25 26 26 26 26
30 30 30 29 28 28 29 28 28 27 27 27 27 27 27 27 26 26 25 25 25 26 26 26 26 25 25 24 24 23 24 24 25 25 25 25 26 27
30 30 30 29 29 28 28 28 28 28 28 28 28 27 27 27 26 26 25 25 25 26 26 25 25 25 25 24 23 22 23 24 24 25 25 25 26 27
29 29 29 28 28 28 28 28 28 28 28 29 28 27 26 26 26 25 25 25 25 25 25 24 24 24 24 23 23 23 24 24 24 24 25 26 26 26
29 29 28 28 28 28 28 28 28 28 28 28 27 26 25 25 25 24 23 24 24 24 24 24 25 25 24 23 23 24 24 24 24 25 25 26 27 28
Wind_Direction
280 281 281 281 280 280 279 279 277 277 276 276 277 276 276 275 274 273 273 272 273 273 273 274 273 270 268 266 265 266 264 261 260 258 257 256 255 254
279 279 279 279 279 279 278 277 277 277 276 276 277 277 276 275 274 275 275 273 273 273 274 275 274 270 268 269 268 266 264 262 260 258 256 255 254 253
279 278 278 278 278 279 279 278 278 279 278 277 277 278 278 277 276 275 275 274 273 273 274 274 274 273 272 271 269 266 265 263 261 260 258 255 253 253
279 279 279 278 278 278 278 278 278 278 278 278 278 278 277 277 276 275 275 275 274 273 273 273 273 272 272 271 270 268 266 264 262 261 259 256 255 254
278 277 278 279 278 277 277 278 278 278 278 278 278 277 277 277 276 275 275 275 275 273 273 272 272 272 273 273 271 269 266 263 261 260 259 258 256 255
278 278 278 278 278 278 278 278 278 278 278 279 278 278 277 278 277 276 275 274 274 272 272 272 271 272 273 273 272 270 266 263 260 259 257 256 255 256
279 279 278 278 278 279 279 279 278 278 279 279 278 278 277 277 276 276 275 275 275 273 272 271 270 270 270 272 273 270 267 264 261 258 256 256 256 255
281 280 280 279 279 279 279 278 278 279 279 279 279 278 278 277 276 275 275 276 275 274 272 271 270 270 270 270 271 270 267 264 261 258 257 256 255 255
280 280 280 280 279 278 279 279 280 280 280 280 279 278 277 277 277 275 275 275 275 274 273 271 270 271 271 271 269 268 266 263 260 257 256 256 255 256
278 278 279 279 280 279 280 280 280 280 280 281 281 280 279 278 277 275 273 273 273 272 271 270 270 270 270 270 270 268 266 263 260 258 256 255 256 256
277 277 278 278 280 280 279 280 280 280 280 281 282 281 280 279 277 275 274 273 272 272 270 269 269 269 270 270 268 267 266 264 261 259 258 258 258 256
275 276 277 277 279 280 280 280 280 281 281 281 281 281 281 279 276 274 274 272 271 271 270 269 268 268 267 267 266 265 265 265 262 260 260 259 259 258
274 275 276 277 277 278 279 279 280 280 281 281 281 282 283 280 276 274 273 272 270 270 270 269 268 268 268 267 265 263 264 265 264 262 261 260 260 260
274 275 275 275 275 277 278 279 279 279 280 281 281 281 281 280 277 276 274 272 269 269 269 270 270 269 269 267 265 264 264 264 264 262 262 261 261 262
275 274 274 274 275 275 276 278 279 280 280 281 280 280 280 279 279 277 275 272 270 269 269 268 268 268 269 268 265 265 265 264 263 262 262 262 263 263
276 275 274 274 275 275 276 278 281 281 282 282 280 279 280 280 278 277 276 273 271 268 268 268 268 268 268 268 267 266 266 264 263 263 263 264 264 264
277 275 274 274 275 275 276 277 280 282 283 283 280 278 278 279 278 277 276 273 271 269 267 267 266 266 266 267 267 266 265 264 263 263 263 264 265 265
276 275 274 275 274 275 277 278 280 282 283 282 281 279 278 275 275 276 275 274 272 268 267 266 266 265 264 264 266 267 265 264 264 264 264 264 265 265
274 275 275 275 275 275 276 277 278 280 281 282 281 280 278 276 276 276 276 275 272 269 269 268 266 264 262 262 264 265 264 263 264 265 265 265 266 267
274 274 274 274 274 275 276 276 277 278 280 281 281 280 280 280 278 278 278 275 273 271 271 270 269 265 261 261 261 262 264 265 266 268 268 268 268 269
276 274 273 273 273 274 275 276 277 277 278 279 280 279 280 279 279 278 276 274 273 272 272 271 269 265 262 262 263 264 267 270 271 271 271 270 270 270
276 274 272 272 272 272 273 274 276 277 278 278 277 276 276 276 276 275 274 274 273 272 272 270 268 266 263 263 264 265 268 269 270 272 273 273 272 271
277 274 272 273 273 272 274 275 274 275 276 275 274 274 274 275 275 272 274 275 276 275 274 271 268 267 264 264 266 266 268 269 270 272 275 275 274 273
Height
5774 5773 5772 5771 5770 5769 5768 5768 5768 5767 5767 5765 5765 5764 5764 5763 5763 5763 5762 5762 5762 5762 5762 5762 5762 5762 5762 5763 5763 5764 5764 5765 5766 5767 5768 5770 5771 5772
5768 5767 5766 5765 5764 5763 5762 5762 5761 5761 5760 5759 5758 5758 5757 5756 5756 5756 5756 5755 5755 5755 5755 5755 5755 5755 5755 5755 5756 5756 5757 5758 5759 5760 5761 5762 5764 5765
5761 5760 5759 5758 5758 5757 5756 5755 5754 5754 5754 5753 5752 5751 5750 5749 5749 5748 5748 5748 5748 5747 5747 5747 5747 5747 5748 5748 5748 5748 5749 5750 5751 5752 5754 5755 5756 5758
5754 5753 5752 5751 5751 5750 5749 5748 5747 5747 5746 5746 5745 5743 5743 5742 5741 5741 5740 5740 5740 5740 5739 5739 5739 5739 5739 5740 5740 5740 5741 5742 5743 5744 5746 5747 5749 5750
5747 5746 5745 5744 5743 5742 5741 5740 5740 5739 5738 5737 5737 5736 5735 5734 5733 5733 5732 5732 5732 5731 5731 5731 5731 5731 5731 5732 5732 5732 5732 5733 5734 5736 5737 5739 5740 5742
5739 5738 5737 5736 5735 5734 5733 5732 5732 5731 5730 5729 5728 5727 5726 5725 5725 5724 5724 5724 5723 5723 5723 5722 5722 5723 5723 5723 5723 5724 5724 5725 5726 5727 5728 5730 5732 5734
5731 5730 5729 5728 5727 5726 5725 5724 5723 5722 5721 5720 5720 5719 5718 5717 5716 5715 5715 5715 5715 5714 5714 5714 5714 5714 5714 5714 5715 5715 5715 5716 5717 5718 5720 5722 5723 5725
5723 5722 5721 5720 5719 5718 5716 5715 5714 5713 5712 5711 5711 5710 5709 5708 5707 5707 5706 5706 5706 5706 5705 5705 5705 5706 5706 5706 5706 5706 5707 5707 5708 5709 5711 5713 5714 5716
5715 5714 5713 5712 5711 5710 5708 5707 5706 5705 5704 5703 5702 5701 5701 5700 5699 5698 5698 5698 5698 5697 5697 5697 5697 5697 5697 5697 5698 5698 5698 5698 5699 5701 5702 5704 5706 5707
5707 5706 5705 5704 5703 5702 5701 5699 5698 5697 5696 5695 5694 5693 5691 5691 5690 5689 5689 5689 5689 5689 5688 5689 5689 5689 5689 5689 5689 5689 5690 5690 5691 5692 5693 5695 5697 5699
5699 5698 5697 5696 5694 5693 5693 5692 5690 5689 5687 5686 5685 5684 5682 5682 5681 5680 5680 5680 5680 5680 5680 5680 5681 5681 5681 5681 5681 5681 5682 5682 5683 5684 5685 5687 5688 5690
5690 5689 5688 5687 5686 5685 5684 5683 5682 5681 5679 5678 5677 5676 5674 5673 5672 5671 5671 5671 5672 5672 5672 5672 5672 5672 5673 5674 5673 5673 5673 5674 5675 5676 5677 5678 5679 5681
5681 5680 5679 5678 5677 5676 5675 5674 5673 5672 5671 5669 5668 5667 5665 5664 5663 5663 5662 5663 5663 5664 5664 5663 5664 5664 5665 5666 5665 5665 5665 5666 5667 5667 5668 5670 5671 5672
5672 5671 5670 5670 5669 5668 5667 5666 5665 5664 5662 5661 5660 5658 5657 5656 5655 5654 5654 5654 5654 5655 5655 5655 5656 5656 5656 5656 5657 5657 5657 5657 5658 5659 5660 5661 5661 5662
5663 5662 5662 5661 5660 5659 5658 5657 5656 5655 5653 5652 5651 5650 5649 5647 5646 5645 5645 5645 5645 5645 5646 5646 5647 5647 5647 5647 5648 5648 5648 5649 5649 5650 5651 5652 5653 5654
5654 5653 5653 5652 5651 5651 5650 5649 5647 5646 5645 5644 5643 5642 5640 5639 5637 5637 5636 5636 5636 5636 5636 5637 5637 5638 5638 5638 5638 5639 5639 5639 5640 5641 5642 5643 5643 5644
5644 5644 5643 5643 5643 5642 5641 5640 5639 5638 5637 5636 5634 5633 5632 5631 5629 5628 5627 5627 5627 5627 5627 5627 5627 5628 5628 5629 5629 5630 5630 5630 5631 5631 5633 5634 5635 5636
5636 5635 5635 5634 5634 5633 5633 5632 5631 5630 5629 5627 5626 5625 5624 5623 5621 5620 5619 5618 5618 5618 5618 5618 5618 5619 5620 5620 5621 5621 5621 5622 5622 5623 5623 5625 5626 5627
5626 5626 5626 5625 5625 5624 5624 5623 5622 5621 5620 5619 5618 5616 5615 5614 5613 5612 5610 5610 5609 5610 5609 5609 5609 5610 5611 5612 5612 5612 5612 5613 5614 5614 5615 5616 5618 5618
5617 5617 5616 5616 5616 5616 5615 5614 5614 5613 5612 5611 5609 5608 5607 5606 5605 5604 5603 5602 5602 5601 5601 5600 5601 5601 5602 5603 5604 5604 5603 5604 5605 5606 5607 5608 5608 5609
5608 5607 5607 5607 5607 5606 5606 5605 5605 5604 5603 5602 5601 5600 5599 5598 5597 5596 5595 5594 5594 5593 5593 5593 5593 5593 5593 5594 5596 5596 5596 5596 5597 5598 5599 5599 5600 5600
5598 5598 5597 5597 5597 5597 5596 5596 5595 5595 5594 5593 5592 5592 5591 5590 5589 5589 5588 5587 5587 5586 5586 5585 5585 5585 5585 5586 5588 5589 5589 5589 5589 5589 5589 5590 5590 5591
5588 5588 5588 5588 5588 5587 5587 5587 5586 5585 5585 5584 5584 5583 5583 5582 5582 5581 5580 5580 5579 5578 5578 5578 5577 5577 5578 5579 5580 5581 5581 5582 5582 5582 5582 5581 5581 5581